Location: Buckland
(65.9785°N, 161.1281°W)
Time: 06:43:42
(UTC+00:00)

Transit 2A Rocket - Pass Details

Date: 01 December 2020
Orbit: 592 x 910 km, 66.7° (Epoch: 21 January)

Event Time Altitude Azimuth Distance (km) Brightness Sun altitude
Exits shadow 18:56:08 - 294° (WNW) 2,554 7.1 -7.0°
Reaches altitude 10° 18:56:46 10° 293° (WNW) 2,317 6.9 -7.0°
Maximum altitude 19:01:55 57° 216° (SW) 848 5.3 -6.6°
Drops below altitude 10° 19:06:35 10° 139° (SE) 2,106 9.1 -6.2°
Sets 19:08:49 0° 135° (SE) 2,974 11.0 -6.0°
